Regional Weather Roundup
Issued by NWS Goodland, KS

Home | Current Version | Previous Version | Graphics & Text | Print | Product List | Glossary On
Versions: 1 2 3 4 5 6 7 8 9 10 11 12 13 14 15 16 17 18 19 20 21 22 23 24 25 26 27 28 29 30 31 32 33 34 35 36 37 38 39 40 41 42 43 44 45 46 47 48 49 50
000
ASUS43 KGLD 260108
RWRGLD

GOODLAND FORECAST AREA HOURLY WEATHER ROUNDUP
NATIONAL WEATHER SERVICE GOODLAND KS
700 PM MDT SAT APR 25 2015

...OFFICIAL OBSERVATIONS...

CITY           SKY/WX    TMP DP  RH WIND       PRES   REMARKS
GOODLAND KS    PTCLDY    65  44  46 E10       29.70R
HILL CITY KS   PTCLDY    58  51  78 E16       29.74R
IMPERIAL NEB   PTCLDY    63  48  58 E18G28    29.71R
MCCOOK NEB     MOCLDY    58  50  75 E16       29.74R
AKRON CO       PTCLDY    61  38  42 SE13      29.70R
BURLINGTON CO  PTCLDY    66  39  37 E12       29.71R
LIMON CO       CLOUDY    62  24  23 SE3       29.72R
$$

...UNOFFICIAL OBSERVATIONS...

CITY           SKY/WX    TMP DP  RH WIND       PRES   REMARKS
COLBY KS       CLEAR     63  55  77 E17G23    29.73R
GOVE KS          N/A     63  32  31 MISG        N/A
LENORA KS        N/A     56  32  40 MISG        N/A
NORTON KS      PTCLDY    55  46  71 NE13      29.75R
SHARON SPRINGS   N/A     66  47  51 N10         N/A
TRIBUNE KS     CLEAR     68  50  52 NE9       29.70
KIT CARSON CO    N/A     66  40  38 MISG        N/A
YUMA CO          N/A     65  37  34 E13         N/A
$$


USA.gov is the U.S. government's official web portal to all federal, state and local government web resources and services.